Theta_e
303 298 293 293 294 297 298 305 309 303 311 314 314 315 315 316 318 324 325 328 331 324 322 324 323 323 325 327 328 335 335 328 326 325 325 326 327 328 328 328 328 329 330 333 336 338 340 342 344 346 347 347 347 348 348 348 348 349 350 350 349 350 351 351 349 348 347 345 345 345 345 345 347 347 349 350 351 352 354 358 357 358 359 360 363 360
303 296 295 296 298 298 299 299 300 300 301 302 311 314 313 315 314 323 324 327 329 323 320 324 323 322 324 327 330 332 330 326 326 325 324 325 327 328 327 328 327 328 330 332 333 337 339 341 343 345 345 348 344 346 347 347 348 349 350 349 348 349 350 350 349 348 348 347 346 345 344 346 346 348 348 347 349 352 354 358 358 359 359 360 361 363
296 295 297 298 299 300 299 299 299 299 299 301 310 312 313 316 322 325 326 327 326 323 319 322 320 321 324 327 329 329 330 330 331 334 327 325 326 326 327 328 327 326 326 330 332 336 338 340 342 344 345 345 346 346 346 348 348 348 349 349 348 349 350 349 349 348 347 347 349 347 347 348 347 350 351 350 352 355 354 357 358 360 359 360 360 363
294 296 298 300 299 298 298 297 297 298 298 297 311 310 309 318 315 312 321 323 323 321 318 322 319 321 324 326 326 328 330 332 334 335 334 329 326 326 327 328 326 324 324 328 330 334 337 339 341 343 343 344 345 345 346 347 347 348 349 348 348 349 350 349 350 350 348 349 351 352 351 350 351 349 353 353 354 354 354 355 358 359 359 360 361 361
294 298 301 299 298 299 297 296 296 295 295 295 305 311 312 316 315 318 318 319 322 322 323 321 316 316 320 320 322 327 331 332 331 334 334 333 333 328 328 327 327 324 325 327 330 334 336 337 340 342 343 344 343 344 345 346 347 349 348 348 349 349 349 350 352 350 349 353 352 353 353 356 354 352 350 350 350 351 353 355 356 357 360 361 361 361
295 299 299 298 297 298 297 296 296 296 293 292 295 306 316 320 318 320 320 318 315 314 319 319 307 309 317 320 320 324 327 327 330 328 329 331 331 328 325 324 324 326 326 328 330 333 336 337 340 341 342 342 342 343 345 346 348 349 348 348 349 349 349 350 352 350 351 352 350 349 348 347 347 346 346 345 346 348 351 353 356 358 360 361 361 360
297 300 300 298 297 296 296 295 296 297 293 295 295 299 314 320 320 320 318 317 310 308 316 321 307 302 315 316 319 322 323 324 329 327 328 332 330 329 325 325 322 323 324 328 331 334 335 337 339 340 341 342 342 343 345 346 348 349 348 348 349 349 349 350 351 351 353 350 351 350 348 349 347 345 347 349 350 351 353 356 356 357 359 361 361 360
299 298 298 297 296 295 294 294 296 297 293 293 295 297 316 319 318 318 318 316 311 319 318 319 313 303 303 314 321 322 321 322 324 326 328 331 331 330 328 326 323 323 324 326 329 333 335 337 338 339 341 341 342 344 345 345 347 347 348 348 349 350 351 351 351 351 352 350 351 350 350 351 348 348 347 350 352 354 357 356 357 358 359 360 361 360
297 296 296 295 295 293 293 294 297 298 296 294 301 309 318 319 319 319 317 312 313 314 308 314 316 303 302 313 323 321 317 319 321 324 326 329 331 331 331 332 325 324 324 327 329 332 334 336 338 340 340 342 343 343 344 345 346 348 348 349 349 349 350 351 351 351 351 352 351 351 350 350 351 351 351 353 356 355 359 355 356 358 359 359 360 360
298 299 296 298 295 293 295 296 299 299 296 300 321 322 321 321 319 317 312 312 309 306 305 311 315 301 302 313 315 320 317 317 320 324 326 329 329 330 331 333 334 324 322 326 330 333 335 337 338 340 341 342 342 343 345 346 347 347 347 348 348 348 349 350 351 351 351 352 353 350 350 350 350 352 350 352 353 354 356 354 355 357 358 358 359 359
300 311 309 298 295 297 297 299 300 299 309 317 319 314 312 312 312 312 309 308 304 297 303 314 314 303 296 309 313 313 315 320 322 324 328 330 330 331 332 333 336 326 321 325 329 332 335 337 338 339 340 341 342 343 344 344 346 347 347 347 346 348 349 350 351 350 350 351 351 350 350 350 349 349 348 349 350 352 353 353 353 355 357 358 359 359
297 299 302 302 305 300 299 298 300 303 320 317 311 310 311 308 312 308 307 307 296 293 301 313 313 308 297 301 313 318 322 325 325 324 326 328 330 331 332 334 338 336 323 325 328 331 333 335 336 338 339 340 340 341 343 343 345 347 347 347 346 346 348 349 350 349 349 350 350 351 350 350 350 349 348 348 349 351 352 352 352 354 356 356 358 358
293 295 295 298 315 302 297 295 296 300 309 314 312 311 304 298 301 298 301 299 296 293 302 311 311 305 301 306 317 319 320 321 327 328 328 329 330 331 332 335 336 340 334 325 328 330 332 333 334 336 338 338 338 340 342 342 344 346 346 346 345 345 347 347 349 349 349 349 349 350 350 350 350 350 349 348 349 351 353 352 352 353 354 355 356 356
291 293 297 297 300 305 298 293 293 295 307 312 309 303 298 292 292 290 294 296 294 300 309 309 311 301 305 313 322 322 325 327 326 330 332 331 331 332 333 336 338 340 338 327 328 330 331 332 334 336 337 338 338 339 341 342 344 345 346 346 345 345 346 347 348 348 348 349 349 350 350 350 352 350 350 349 349 351 353 353 353 353 354 354 356 356
287 288 293 296 294 300 299 297 297 295 307 312 312 308 302 299 295 290 292 291 293 297 305 309 304 297 302 310 323 326 328 329 332 331 333 332 334 336 338 339 339 337 337 334 327 329 331 332 334 335 336 337 338 339 341 341 343 345 345 345 346 344 345 346 347 348 348 349 349 350 350 350 351 351 351 350 351 351 352 353 353 354 355 355 356 357
289 287 292 298 300 300 299 299 301 306 310 309 310 310 304 301 301 297 297 297 299 302 302 304 303 309 310 320 325 329 330 330 333 329 331 331 335 337 337 337 338 338 337 336 329 329 331 333 334 335 336 337 337 338 340 341 343 344 345 345 345 345 345 346 348 347 348 349 349 349 350 350 352 354 352 353 355 353 353 354 354 354 355 356 357 357
290 288 295 296 301 300 301 302 301 312 298 301 306 303 306 309 305 301 305 306 307 303 301 307 306 311 317 319 324 327 327 328 331 330 329 329 333 334 335 337 337 338 338 337 333 329 330 332 333 335 336 336 337 337 340 341 343 344 345 345 344 345 346 345 348 347 347 348 349 349 350 350 351 353 351 351 353 353 354 355 355 355 355 356 357 357
288 289 293 296 297 301 300 302 303 306 302 302 300 305 302 305 306 302 297 293 295 296 300 306 302 303 304 302 321 323 322 324 327 330 331 330 331 332 334 335 337 338 339 340 341 341 335 332 333 334 335 337 337 338 339 342 343 344 345 345 344 344 344 345 347 347 347 348 348 349 349 350 351 352 352 352 353 354 354 355 356 356 356 356 357 357
293 287 289 294 297 300 301 302 299 301 302 309 307 308 300 294 297 296 300 290 291 292 296 302 304 305 306 306 316 318 319 321 323 327 329 329 330 330 333 335 337 339 339 340 341 341 340 337 334 334 335 336 337 340 339 342 343 344 345 346 345 345 345 346 347 348 349 348 348 349 350 350 351 352 353 353 354 355 354 354 355 355 356 357 358 359
294 288 287 294 296 298 298 298 292 294 300 300 303 300 299 296 294 297 299 298 299 295 297 297 302 298 304 307 316 319 320 321 322 324 326 329 330 330 332 335 336 337 337 339 341 342 342 342 340 337 335 336 337 338 339 342 343 343 344 346 346 346 347 347 347 349 348 349 349 349 350 350 352 353 353 353 353 354 354 355 355 355 355 357 359 359
293 293 285 290 295 297 294 294 294 294 293 295 297 295 297 295 298 299 296 299 298 296 295 294 293 299 303 314 318 320 320 322 323 323 324 326 329 332 332 334 335 337 337 338 341 342 343 343 344 343 339 337 338 340 340 342 343 343 344 345 347 345 346 347 347 348 349 350 349 350 349 349 350 351 353 353 353 353 354 355 357 356 357 358 358 359
291 291 288 288 292 292 290 293 297 297 300 298 295 294 294 294 296 294 290 297 300 297 292 292 291 299 310 320 322 321 321 323 324 324 324 327 330 332 334 335 336 337 339 339 341 344 343 344 345 345 345 343 340 339 339 341 343 344 343 345 346 347 347 348 348 348 349 350 350 350 350 350 350 352 353 353 353 353 353 354 356 357 357 357 358 359
296 290 291 289 289 290 294 297 298 297 296 295 298 296 294 293 295 289 288 294 300 300 302 297 292 297 315 321 322 321 322 324 324 324 323 325 327 329 332 335 336 338 339 341 342 341 340 344 346 346 345 343 342 341 340 342 343 343 344 346 347 346 347 350 350 350 351 351 350 351 351 351 351 351 352 352 352 352 353 353 354 356 356 356 357 359
321 291 291 290 289 292 294 295 300 297 297 297 295 294 294 294 292 292 294 300 298 299 296 292 292 299 315 322 322 322 322 322 323 324 323 324 325 326 327 330 332 334 337 339 340 342 342 343 344 344 344 345 345 344 343 343 344 344 344 347 348 347 348 350 352 351 351 351 351 351 351 351 352 352 352 352 352 352 353 353 353 355 354 354 355 355
296 294 288 287 285 286 288 293 294 296 294 291 292 294 297 300 300 298 303 300 299 299 297 295 290 300 315 320 320 319 319 319 320 322 324 323 325 325 326 327 331 333 334 337 338 339 340 340 340 341 343 343 344 345 345 345 346 347 347 349 350 349 351 352 353 353 352 352 352 352 351 351 352 352 352 352 352 352 353 353 352 353 353 353 353 354
295 296 291 285 282 282 282 282 283 290 291 291 293 302 305 305 305 304 300 295 289 297 298 295 296 307 315 318 317 317 317 317 321 322 323 324 324 324 325 327 327 329 332 334 336 337 337 337 339 340 341 343 344 344 344 345 346 347 348 349 350 350 351 351 352 352 352 353 352 351 350 351 351 351 352 352 352 353 353 353 352 352 353 353 353 353
296 298 292 287 284 282 283 285 290 300 291 291 295 299 303 303 304 302 299 295 293 296 299 297 303 307 310 313 313 315 316 316 318 321 321 321 322 323 324 324 326 326 327 329 332 335 335 336 337 338 340 342 344 345 346 346 346 345 346 347 349 350 350 350 349 349 349 351 351 349 348 349 349 350 351 352 353 353 353 353 353 352 351 352 352 352
297 293 296 292 291 291 290 291 290 299 291 292 296 299 301 302 303 303 299 294 299 300 292 297 308 307 309 312 313 314 315 317 319 320 320 321 322 322 323 324 325 325 325 326 327 330 332 334 336 337 338 340 342 344 345 345 345 344 345 345 347 348 349 349 349 349 349 349 347 347 348 348 349 349 348 350 350 351 352 352 351 352 353 353 352 351
294 293 297 296 291 291 291 290 292 294 294 297 300 298 302 301 303 301 300 301 304 298 296 302 308 308 311 313 314 314 315 316 317 319 320 321 321 322 321 321 321 322 324 324 325 328 331 331 333 336 338 339 339 340 340 341 343 344 344 346 346 347 347 348 348 348 347 347 346 346 347 348 348 349 349 350 350 349 348 349 349 349 349 350 351 350
295 293 301 296 291 292 292 292 294 299 297 298 300 303 303 303 303 303 304 304 302 300 302 308 309 310 314 313 314 314 316 317 319 321 321 320 320 320 319 319 319 320 322 323 325 327 329 331 333 333 334 334 335 336 337 338 339 340 341 342 345 345 347 348 347 347 346 346 346 346 347 347 348 349 349 349 349 349 349 349 349 349 349 349 349 349
295 293 304 294 290 291 292 294 292 294 298 295 294 296 300 305 306 307 307 309 310 308 309 310 310 309 314 315 314 315 317 318 319 319 318 319 319 319 318 318 318 319 322 324 325 327 328 329 330 331 331 332 332 333 334 335 336 338 338 339 340 341 343 344 343 343 343 344 346 348 350 349 349 350 349 349 349 349 349 349 349 350 350 350 350 349
299 296 295 291 288 288 291 292 292 292 295 294 293 295 294 297 303 305 304 307 306 306 308 309 307 307 312 314 315 316 316 317 316 317 317 318 318 318 317 317 317 318 319 321 324 325 326 327 328 329 329 330 330 331 331 332 333 333 334 336 337 339 340 340 339 339 340 341 343 344 344 346 348 348 349 350 349 350 350 351 351 351 351 350 350 351
293 293 290 289 285 288 292 293 292 290 294 291 290 293 296 301 303 306 307 310 310 311 307 305 306 313 312 315 313 313 315 315 315 316 316 317 317 317 316 316 317 318 319 320 321 322 324 326 326 327 327 327 327 328 330 330 330 330 331 332 334 335 335 336 337 337 337 338 339 341 343 343 343 344 345 346 348 350 351 350 349 349 349 350 352 352
295 293 292 292 286 287 291 292 294 286 284 286 294 296 297 303 305 303 303 307 308 307 306 308 310 312 313 313 312 312 313 313 314 315 318 316 315 314 315 315 316 317 318 319 320 322 323 324 325 326 327 327 329 330 332 332 331 331 333 333 333 332 332 332 332 333 334 335 336 337 339 341 341 341 343 345 346 347 346 346 345 347 349 350 351 350
293 291 291 291 288 286 288 290 289 281 283 294 301 303 299 305 307 305 304 304 306 308 309 309 311 312 313 314 314 314 313 314 315 315 315 315 315 313 313 313 314 317 318 318 319 319 320 321 322 322 323 324 326 327 327 328 328 327 328 330 330 331 331 331 331 331 331 331 332 334 336 337 338 340 342 343 343 343 344 345 346 346 347 348 348 347
291 290 292 291 290 288 284 283 280 284 294 297 303 307 311 310 309 308 305 305 305 307 310 309 310 312 313 313 313 313 313 313 314 314 314 314 314 312 312 313 316 317 318 318 317 318 318 319 319 320 321 324 323 323 323 323 324 323 323 325 324 325 325 327 327 328 330 330 332 332 333 334 335 337 339 341 341 339 339 342 344 345 347 348 347 347
294 291 290 287 291 286 286 286 288 291 296 298 294 298 296 300 304 302 298 301 304 308 310 309 310 311 311 312 312 312 313 313 310 309 313 313 312 313 313 314 316 316 316 317 317 317 318 319 319 321 322 322 322 322 321 322 322 321 321 321 322 322 322 322 323 324 325 328 331 332 331 332 333 334 335 337 338 340 339 340 341 344 347 346 346 346
293 292 290 289 288 292 286 285 283 281 283 289 296 297 300 299 300 304 300 299 304 310 311 311 310 310 310 311 311 312 313 309 305 306 311 312 312 312 313 314 315 315 316 315 316 316 316 317 318 320 319 319 320 321 321 320 319 319 318 318 319 319 319 321 321 323 325 326 328 330 330 331 330 330 332 332 334 338 338 338 340 341 345 345 344 345
293 292 290 289 287 288 288 282 282 279 286 290 294 297 299 299 304 306 299 295 302 308 310 312 310 310 310 310 310 312 309 304 303 306 309 311 311 313 313 313 314 314 314 314 315 315 316 317 318 318 319 318 318 318 320 319 318 317 316 317 316 317 317 318 320 321 322 324 326 327 327 329 330 328 328 329 332 336 336 336 339 342 344 345 345 344
290 289 287 287 287 289 287 286 285 286 288 296 296 297 299 300 306 300 290 290 302 308 310 311 310 310 311 311 312 311 308 303 304 308 311 311 311 312 313 312 312 312 313 314 315 316 317 319 316 315 315 316 316 318 317 317 318 318 315 315 315 315 315 316 318 321 323 324 324 325 326 326 328 329 328 328 330 334 336 338 339 340 341 343 342 340
286 287 284 283 286 290 290 285 287 291 297 299 299 299 299 301 299 291 285 295 306 308 310 311 311 311 312 311 312 309 309 310 312 312 312 310 311 311 312 313 313 313 313 314 316 318 313 313 314 313 314 315 316 317 317 315 314 314 316 315 314 314 315 316 319 321 323 323 323 323 323 324 325 326 327 329 331 334 336 336 337 338 337 337 338 337
283 287 289 282 282 284 281 282 285 288 296 300 300 301 302 302 291 287 295 299 308 309 311 312 311 311 312 312 311 309 308 311 313 311 310 310 311 311 311 311 312 313 315 318 318 314 311 312 312 312 313 314 316 316 315 315 314 314 314 313 313 314 316 317 318 320 321 321 321 322 322 323 325 326 327 330 332 331 332 335 337 336 335 335 334 334
289 283 283 284 285 285 281 282 282 282 294 304 303 299 301 294 291 290 296 301 308 311 311 311 311 311 312 308 307 307 309 310 310 309 309 310 310 310 310 311 311 312 312 311 312 315 313 310 310 310 311 312 313 314 315 315 314 313 313 312 313 315 317 318 318 319 320 320 319 321 322 323 323 325 326 329 331 330 329 331 332 332 332 331 331 331
291 285 284 283 287 283 281 284 284 289 293 298 301 295 296 300 299 296 299 303 305 310 311 310 310 311 311 308 306 307 309 309 308 309 309 310 310 310 310 311 311 310 311 312 312 312 313 310 310 310 310 311 312 312 313 314 314 314 312 311 314 315 318 318 318 319 318 319 318 319 320 322 322 324 325 326 328 331 329 329 330 330 329 329 330 329
293 292 287 287 290 289 288 287 291 294 297 300 301 299 301 304 304 300 301 303 306 308 309 311 309 308 308 308 308 308 308 309 308 309 309 309 309 309 309 309 309 310 310 311 312 313 311 309 309 309 309 310 311 311 311 313 314 314 311 311 315 314 315 317 318 319 316 316 316 317 318 319 320 324 324 324 325 326 328 329 330 327 326 327 326 328
295 295 292 292 292 295 296 296 298 300 301 302 302 303 302 303 303 302 304 304 305 306 311 311 309 307 307 308 307 308 308 308 307 308 309 309 308 308 309 308 309 310 310 310 310 311 310 309 309 309 309 309 310 310 312 311 312 311 311 312 313 313 314 316 317 317 315 315 316 317 318 318 321 324 322 322 322 324 326 326 327 329 326 324 326 326
293 296 292 292 293 289 289 294 298 299 300 301 301 302 302 303 303 302 302 302 303 305 306 307 308 309 310 311 310 308 307 308 308 308 308 307 307 307 307 308 308 309 309 308 310 311 308 308 308 309 309 308 308 309 310 310 311 312 312 312 311 312 313 316 316 316 314 313 315 317 319 319 322 323 321 321 321 320 322 322 325 325 326 325 324 326
293 296 291 291 290 290 292 295 299 300 301 301 301 301 301 301 303 302 303 303 303 304 307 311 312 312 311 308 308 307 307 307 307 307 307 306 306 306 307 307 308 308 308 309 311 310 308 308 308 308 309 308 307 309 309 309 309 309 310 310 310 310 312 314 315 313 311 313 315 318 320 320 325 322 319 319 320 318 319 320 322 324 323 323 324 324
295 300 292 293 293 293 296 298 299 300 300 301 303 303 302 301 302 302 302 302 303 303 305 306 311 312 308 307 310 309 308 308 306 308 307 306 305 306 306 307 307 308 307 308 309 310 307 308 309 309 309 308 307 307 308 308 308 309 309 309 310 310 311 312 313 312 311 313 315 317 321 320 319 319 319 318 319 319 318 319 321 323 323 322 325 327
294 291 294 292 290 290 292 296 296 295 295 298 302 303 303 302 302 302 302 302 302 302 303 303 303 306 307 308 309 308 308 306 308 308 306 306 306 306 306 307 307 307 306 308 309 308 309 310 309 309 308 306 306 307 307 307 308 308 309 309 309 309 310 311 311 311 310 313 314 318 318 318 317 318 319 317 318 319 321 324 314 317 322 323 323 315
295 294 289 290 287 290 292 294 297 297 297 301 301 304 303 304 304 303 302 301 302 302 302 302 302 303 305 306 309 308 307 306 306 307 306 306 306 306 307 307 306 305 306 307 307 307 308 308 310 310 308 307 308 308 308 307 307 307 308 308 309 309 308 309 311 310 309 313 314 317 317 316 315 317 316 317 317 318 320 320 321 306 303 310 314 309
Wind_Speed
4 5 4 5 5 6 4 8 6 1 4 5 5 5 5 4 2 1 3 9 4 6 6 5 5 5 7 8 11 5 4 9 10 11 10 9 10 10 10 9 9 9 10 8 8 8 9 8 7 7 7 8 7 7 8 9 9 8 8 8 9 7 7 7 6 6 5 4 4 3 5 4 4 4 4 3 2 3 3 3 3 3 3 3 3 2
4 5 7 5 7 7 8 5 3 2 2 3 5 6 6 5 4 3 5 10 8 2 6 4 7 6 9 8 8 4 6 10 9 11 10 10 11 10 11 11 10 10 5 5 6 7 7 6 8 7 7 9 10 8 9 10 10 8 8 9 8 7 8 8 7 6 5 4 4 4 5 3 5 5 5 4 3 3 3 3 3 2 2 2 3 2
3 7 5 7 4 2 2 3 3 3 2 2 4 4 6 2 5 4 5 9 4 4 3 8 7 7 9 9 5 4 2 4 2 1 6 11 10 10 10 10 9 7 6 6 8 8 8 9 9 8 8 8 9 10 10 10 10 9 8 7 8 8 8 7 7 6 5 5 4 4 4 5 4 2 3 3 3 3 3 3 3 2 2 2 2 2
2 5 9 3 5 4 1 3 3 3 2 3 5 5 5 7 5 1 3 8 9 2 5 9 8 5 6 5 4 1 1 2 1 2 4 4 11 11 12 11 10 9 8 9 9 10 9 9 8 7 7 7 7 8 8 8 10 8 8 8 8 8 7 7 7 7 5 5 3 3 4 5 4 4 4 4 4 3 3 3 3 2 2 2 2 2
5 2 1 6 4 5 3 3 4 3 2 1 4 3 4 7 4 3 6 6 5 4 4 6 6 3 5 8 4 5 3 1 4 2 2 2 3 7 5 5 8 11 10 10 9 9 9 9 9 10 9 8 8 9 10 10 10 8 10 10 10 9 8 7 7 7 5 4 4 4 5 4 4 5 4 4 3 3 3 3 3 4 3 3 3 3
6 5 3 4 2 2 3 2 4 5 3 1 5 7 6 8 7 11 14 11 3 1 4 9 5 7 8 9 11 8 5 4 2 1 3 3 4 4 6 8 5 5 8 12 11 11 11 11 9 7 7 8 8 9 9 9 9 8 9 9 9 8 7 8 8 7 6 6 5 5 4 4 3 3 4 6 6 5 5 4 3 3 3 3 3 3
4 1 4 3 3 2 3 3 3 4 4 0 5 9 9 11 9 14 13 8 6 5 8 6 4 2 2 12 10 8 8 7 5 5 5 3 4 5 8 8 7 8 7 7 10 11 11 10 9 9 9 10 10 9 8 7 8 8 8 10 10 9 8 8 8 8 7 6 5 7 7 5 5 5 4 3 3 4 4 3 4 4 3 4 4 3
1 0 3 3 4 3 1 3 3 6 5 3 2 6 8 10 11 13 14 8 3 4 5 3 1 3 0 5 7 8 6 6 8 7 8 5 4 6 6 7 8 9 9 10 10 12 13 12 13 13 12 11 11 8 8 8 7 9 9 9 9 8 8 8 8 9 7 8 7 6 6 5 5 5 5 5 4 3 4 4 4 3 3 4 4 4
3 1 3 2 1 3 5 4 4 7 5 2 1 10 13 14 12 11 9 5 4 6 4 6 3 2 2 0 6 10 9 10 11 11 10 8 6 5 5 6 9 10 10 11 11 12 12 12 13 12 12 11 8 8 10 10 8 8 8 8 8 8 8 7 9 9 8 7 8 7 6 6 4 4 4 3 3 4 4 5 3 4 4 4 4 4
1 4 5 7 6 6 5 5 7 9 5 1 7 9 9 10 9 5 3 6 2 3 5 9 7 3 1 3 4 8 11 12 12 12 11 9 6 6 5 3 5 8 8 9 13 13 13 13 13 13 11 9 10 9 8 6 6 7 7 8 8 8 7 7 9 8 8 8 7 7 7 7 5 4 3 4 4 4 4 5 4 4 4 4 3 3
5 3 5 4 5 7 7 7 9 6 3 3 13 14 11 11 7 6 6 2 4 1 4 10 8 2 1 5 7 11 9 13 10 8 7 6 5 4 3 4 3 8 9 9 9 10 13 13 12 10 11 11 7 6 8 8 8 8 9 9 9 9 7 8 9 8 9 7 7 7 7 7 7 6 6 5 4 4 4 5 4 4 4 4 4 3
2 1 1 3 7 2 4 1 1 5 8 6 3 6 8 7 6 7 4 4 4 3 4 10 9 2 0 1 4 6 1 2 9 12 12 11 8 7 5 4 2 4 8 9 9 9 8 5 6 8 9 9 8 8 8 8 8 9 8 9 10 8 8 8 8 8 8 7 7 7 8 8 7 8 7 8 7 6 7 6 5 4 3 4 3 3
3 5 3 4 4 11 2 3 1 4 2 7 8 7 8 1 2 1 4 1 3 3 2 4 9 1 2 0 0 4 6 4 5 10 13 12 10 7 5 5 4 2 6 9 9 8 8 10 10 9 8 6 7 10 11 11 10 9 9 10 11 10 8 9 9 9 8 8 7 7 7 7 6 7 8 8 8 7 6 5 5 5 5 4 4 4
6 2 1 5 1 4 7 7 2 4 3 9 9 6 7 4 2 2 2 2 4 3 2 6 3 1 1 2 3 4 4 4 6 9 11 13 11 9 7 5 4 2 4 9 9 9 10 10 10 11 10 11 10 10 10 10 9 9 9 10 11 11 9 8 8 9 8 8 8 7 7 6 6 7 7 6 7 7 6 6 6 6 5 5 6 5
1 3 6 3 2 3 7 7 10 7 7 8 5 9 7 8 6 4 4 5 6 3 1 3 5 3 2 1 3 3 2 2 2 6 10 10 7 5 5 4 3 1 1 6 9 10 11 11 11 11 11 10 10 10 10 9 8 8 8 9 10 9 8 8 8 7 8 7 7 6 6 6 6 6 6 6 6 6 6 5 6 5 5 5 5 6
4 5 7 6 2 6 9 5 6 9 8 3 2 5 7 6 5 6 4 5 4 4 4 1 1 1 1 2 3 2 3 4 3 5 11 10 7 8 6 5 4 2 2 3 7 8 10 10 10 9 9 9 9 9 9 9 8 9 9 10 10 11 10 9 8 8 8 7 6 7 7 6 6 5 5 4 4 4 6 6 7 6 6 6 5 5
1 1 2 7 1 5 9 7 2 8 6 4 4 6 5 3 9 6 3 3 4 4 1 1 1 2 1 1 2 4 6 4 4 4 9 11 8 9 7 6 5 3 2 2 6 7 9 9 9 10 10 9 8 7 9 10 11 11 9 9 9 7 7 9 9 9 7 7 7 7 7 6 6 6 7 6 7 6 6 6 6 6 6 5 5 5
1 6 5 2 4 5 3 5 7 6 7 6 4 8 2 3 4 6 3 1 3 3 1 0 2 1 2 2 2 5 8 5 4 3 6 9 9 9 7 7 6 5 3 3 2 4 6 9 11 10 9 10 11 12 10 9 9 8 9 10 10 9 9 8 9 9 8 8 7 7 7 7 6 6 6 6 6 5 5 5 5 4 5 6 5 4
3 3 5 3 4 3 1 8 4 2 0 11 10 8 7 1 4 2 5 1 2 1 2 2 3 4 4 2 2 6 6 6 3 2 6 7 9 8 7 7 6 6 5 3 4 4 5 7 9 9 10 10 9 9 9 7 6 6 7 7 9 11 11 10 7 7 6 7 6 6 7 8 6 5 5 5 5 5 5 5 5 6 6 5 5 5
1 1 5 2 2 1 1 4 6 2 3 4 6 7 2 5 4 4 3 4 5 3 3 2 1 4 1 4 2 6 8 7 4 4 3 6 7 7 7 7 7 6 6 5 3 3 4 5 6 8 9 10 10 10 9 8 7 8 7 7 7 5 3 5 6 6 7 6 6 6 6 7 7 6 6 6 6 5 6 6 6 5 5 6 5 5
1 0 2 3 3 2 4 0 8 8 6 3 6 3 0 2 1 6 3 2 5 7 3 3 1 5 1 3 3 7 6 7 6 4 2 1 2 5 6 6 6 5 6 7 5 3 3 3 3 4 5 6 6 6 7 8 10 9 6 6 6 8 7 7 7 7 6 6 6 7 8 8 7 7 6 6 6 6 6 5 5 5 6 4 5 5
2 1 4 3 1 3 4 3 5 10 13 9 8 8 8 8 6 6 1 1 2 6 5 5 6 2 3 2 1 8 4 7 6 6 5 4 4 4 4 5 5 7 6 6 6 4 4 4 4 4 4 5 6 7 9 8 7 7 8 7 7 6 7 7 7 7 7 7 6 7 7 7 6 6 6 6 6 6 6 5 5 6 4 6 5 5
1 3 1 2 1 2 1 1 3 4 2 4 7 8 6 2 7 6 6 3 3 1 4 2 3 1 2 2 2 7 7 7 6 6 7 7 7 6 3 6 5 4 4 6 8 8 5 5 4 3 4 6 8 8 8 7 9 9 8 7 7 8 7 7 7 6 6 6 6 6 5 5 5 5 6 6 6 6 5 5 5 5 5 5 5 5
3 2 1 2 4 5 5 2 2 2 3 4 4 3 4 7 6 7 7 8 7 4 3 1 0 1 2 1 2 7 7 7 6 7 7 8 7 7 8 6 5 5 8 8 6 7 7 5 4 4 5 5 4 4 5 6 6 6 7 7 7 8 7 7 6 6 6 6 6 5 5 5 4 5 5 6 5 6 5 5 5 5 6 6 4 5
0 1 2 1 2 3 4 3 3 2 5 2 2 1 1 5 7 4 8 3 7 5 5 8 5 2 3 2 5 6 7 7 9 8 8 8 7 7 6 5 4 4 6 8 11 8 7 6 5 6 6 6 5 5 5 6 6 6 6 6 7 5 4 4 4 5 6 7 7 7 6 6 6 6 6 6 4 5 5 5 5 5 6 6 6 5
5 0 0 2 6 5 6 5 4 3 3 1 1 1 0 8 12 6 4 1 4 3 3 4 2 1 6 6 8 7 7 8 9 9 9 8 7 6 4 5 6 5 3 4 8 10 9 8 6 6 6 6 5 5 5 5 6 6 6 5 6 8 7 6 5 5 5 4 6 5 6 6 6 7 8 7 6 6 5 4 5 5 5 6 7 6
2 2 2 2 6 7 3 3 4 1 1 3 1 1 1 2 3 6 6 5 6 5 5 3 6 10 10 11 10 8 7 8 10 9 9 8 7 6 5 5 6 7 6 6 5 7 8 7 8 9 6 4 5 7 7 8 7 7 7 6 5 5 6 6 6 5 5 4 3 3 2 2 2 3 4 5 6 6 6 6 5 5 5 5 6 6
3 3 2 3 3 1 3 4 4 1 3 2 4 1 0 2 4 8 9 6 6 12 2 3 8 15 13 12 11 10 9 8 9 10 9 9 8 6 6 7 8 9 9 9 8 8 7 8 9 9 8 6 5 7 8 7 6 6 7 7 7 5 5 4 6 6 5 5 5 4 2 1 1 1 3 4 6 4 4 5 6 5 5 4 5 5
3 2 6 1 5 4 4 4 2 3 3 3 3 3 2 1 2 7 0 4 9 8 10 8 13 12 12 12 12 11 10 9 8 9 10 9 8 7 7 8 10 10 8 9 8 7 9 8 9 9 8 7 8 9 8 8 7 6 7 6 4 5 5 5 4 4 4 4 3 2 1 0 2 2 1 2 2 3 4 3 3 3 3 4 4 4
2 1 2 0 4 8 9 9 6 7 4 7 9 7 4 3 2 7 6 3 2 2 3 15 11 7 9 13 12 10 7 7 8 10 9 9 9 7 8 9 10 9 7 8 9 9 8 9 10 10 11 10 9 8 8 8 8 7 7 5 4 5 4 5 5 2 2 3 2 1 1 1 2 1 0 1 1 2 3 3 2 1 0 1 2 4
3 3 5 3 4 5 7 9 9 4 10 11 8 9 9 6 7 4 7 7 13 10 11 15 13 9 5 11 9 8 8 7 9 10 9 9 8 9 9 9 9 8 8 8 8 9 10 11 11 12 12 11 11 10 8 8 8 9 9 8 7 7 6 6 7 6 6 7 6 5 3 1 1 0 1 2 2 2 1 1 2 2 3 2 2 2
4 2 4 4 5 5 5 11 7 7 8 12 8 10 9 5 6 0 3 1 4 9 12 12 10 7 7 10 11 10 10 11 10 10 9 8 9 9 10 9 8 7 8 10 10 9 10 11 11 11 11 11 11 10 9 9 9 9 9 9 9 7 7 8 7 7 7 7 7 7 7 6 6 5 4 3 2 4 4 3 2 0 1 2 2 2
0 2 3 3 5 2 7 6 6 7 4 7 6 5 3 1 1 0 2 3 7 20 15 12 11 8 13 13 14 11 11 10 10 10 10 10 8 10 10 9 8 8 9 10 11 10 9 9 9 10 11 10 10 11 10 8 10 10 8 9 8 8 9 8 7 6 7 7 8 8 7 6 6 6 6 5 5 6 5 5 5 5 4 4 3 3
2 4 3 1 3 1 9 11 5 4 4 1 5 4 3 1 3 6 2 4 5 3 1 2 7 12 13 13 15 13 11 9 8 4 6 9 10 10 9 8 8 8 8 10 10 9 9 8 8 8 10 10 10 11 8 9 9 7 7 9 8 9 8 9 9 9 9 9 9 7 5 4 4 4 4 3 3 3 4 5 6 6 6 5 5 5
2 2 2 1 3 2 5 7 4 3 2 4 8 3 2 7 12 11 9 8 5 3 9 13 14 14 11 10 11 10 9 8 8 9 7 6 8 10 10 8 8 7 8 8 10 9 9 10 9 9 10 9 8 8 8 8 8 8 8 7 9 8 8 8 9 9 8 8 7 6 6 5 5 5 4 4 4 4 4 4 4 5 4 5 5 5
1 4 2 3 2 1 5 5 3 2 2 4 3 4 3 7 5 12 8 7 7 1 12 12 13 12 12 12 10 9 11 11 10 7 6 5 4 8 10 8 8 7 8 7 9 9 10 10 10 9 8 6 7 7 7 7 8 9 8 8 9 9 8 8 9 8 6 6 5 5 5 5 5 4 4 4 4 4 4 4 4 4 3 4 4 5
6 3 3 2 2 3 1 0 2 3 1 2 3 4 3 0 0 2 3 2 2 1 8 14 13 13 13 11 11 11 11 11 10 6 5 5 5 3 7 8 8 8 7 7 7 8 8 8 9 8 7 8 8 8 7 7 9 9 8 9 9 9 9 10 10 8 7 5 5 5 5 4 5 5 6 5 5 5 5 4 4 3 3 3 4 4
1 2 2 5 2 3 4 2 4 3 1 4 1 6 3 4 2 2 5 2 3 3 4 16 16 16 14 13 13 12 12 13 9 3 1 4 5 7 7 7 8 8 8 8 7 8 8 8 8 7 9 10 10 7 6 7 9 9 10 9 9 9 9 10 8 6 6 6 6 5 5 5 5 6 6 6 6 5 4 3 3 3 4 4 5 6
6 7 5 6 3 3 4 2 1 2 1 3 8 7 8 4 1 2 3 1 2 3 4 11 17 16 18 17 15 13 10 9 6 6 5 5 6 7 10 7 8 7 7 7 8 8 8 8 9 8 9 10 10 7 7 8 10 10 10 8 8 8 9 7 6 5 5 4 4 5 5 5 6 6 6 6 6 6 6 6 5 4 5 5 6 7
8 5 4 5 3 1 6 4 3 4 0 2 5 6 6 5 1 3 2 4 5 5 5 8 15 16 12 13 14 11 12 10 8 10 8 8 8 7 9 11 9 9 8 7 7 7 7 6 10 11 10 9 7 6 8 9 10 10 9 7 7 9 8 7 6 6 4 4 5 5 6 6 6 6 7 7 7 6 6 5 5 7 6 6 6 6
4 3 6 3 2 3 4 0 2 2 2 3 4 7 7 2 4 4 2 3 5 7 6 9 12 15 16 15 13 11 7 5 13 12 11 10 10 7 5 5 7 9 10 9 8 7 9 9 9 9 8 6 6 7 7 8 10 9 7 7 8 8 6 5 5 5 6 6 6 7 7 6 6 7 6 6 5 4 5 5 6 6 6 6 6 7
2 1 0 3 5 2 1 4 3 3 4 2 6 5 4 1 2 1 3 2 8 7 7 10 12 12 16 17 10 4 7 11 13 12 13 12 12 10 9 8 8 7 6 7 9 9 9 8 9 9 9 7 7 7 7 9 9 7 7 8 8 6 5 4 5 5 6 8 8 7 7 7 7 6 5 5 5 6 6 5 5 6 6 6 6 7
0 1 0 1 1 1 3 3 1 3 0 2 9 3 2 2 3 3 1 1 2 8 12 9 11 11 11 8 5 9 11 13 14 15 13 12 13 13 11 10 10 10 9 8 8 7 9 10 9 9 8 6 7 7 7 10 9 7 7 9 7 6 5 5 5 5 6 7 7 7 7 7 8 6 5 5 5 5 5 5 5 6 6 6 6 5
1 2 0 2 4 1 1 1 0 2 4 3 2 1 3 1 1 3 3 5 0 5 8 8 5 7 7 10 12 11 12 13 10 11 11 10 10 10 9 8 8 8 7 6 8 8 10 10 8 8 7 6 6 6 6 8 7 6 7 7 6 6 6 7 7 7 7 6 6 7 6 6 6 5 6 6 5 6 5 5 4 5 5 5 5 5
1 0 4 1 1 1 1 1 3 3 4 4 2 2 2 4 1 5 3 4 7 5 3 7 8 5 8 9 12 15 13 14 15 14 16 13 12 12 12 11 11 10 9 10 9 8 9 10 9 8 8 6 7 7 6 6 8 7 7 4 3 4 5 6 7 7 8 7 6 6 6 6 5 5 5 5 5 5 5 5 5 4 5 5 5 5
1 1 1 3 0 1 1 3 4 3 3 7 2 1 2 4 3 2 1 5 0 2 5 10 8 8 8 9 12 8 13 13 14 12 10 11 12 9 9 9 8 8 9 9 8 8 9 9 8 9 9 7 7 7 6 6 7 8 3 3 4 5 5 5 6 6 7 6 6 6 6 6 6 6 6 5 4 4 4 3 3 3 3 4 4 4
1 1 1 1 1 3 0 4 5 4 5 7 7 6 4 5 4 3 3 2 2 5 7 8 9 9 9 5 4 10 10 12 13 11 10 10 11 10 10 11 9 10 11 10 9 9 9 9 8 8 8 8 5 6 6 7 6 5 4 4 4 3 4 4 6 6 6 7 6 6 7 7 6 6 6 6 6 4 3 3 3 3 3 3 3 3
1 1 3 1 2 2 0 2 3 2 1 3 5 7 7 8 9 6 3 2 4 5 8 11 12 9 11 11 8 8 10 10 14 12 10 10 10 10 9 10 10 8 7 9 9 9 8 8 9 8 8 7 5 5 6 6 5 4 5 4 4 4 4 5 6 5 5 6 6 5 6 7 9 7 5 5 5 6 6 5 3 2 3 3 2 3
2 2 0 0 1 1 1 2 3 1 3 8 7 4 3 4 3 6 5 4 6 9 7 4 5 9 9 9 11 11 9 7 6 4 12 10 9 9 9 9 9 10 9 9 8 9 10 9 9 9 8 7 6 6 6 5 4 4 5 4 4 5 5 6 7 5 5 5 6 6 6 5 5 4 5 5 5 3 2 4 4 4 3 2 0 1
1 2 0 1 3 0 1 1 1 2 1 4 6 6 6 4 4 6 6 8 7 5 4 9 6 4 6 11 15 14 16 13 13 10 9 10 10 9 8 9 8 8 7 7 7 8 8 9 10 9 8 7 6 6 6 5 4 4 3 4 4 5 6 5 6 6 6 6 5 6 6 6 6 6 5 4 5 6 5 2 4 2 2 2 4 4
2 1 3 1 5 1 2 2 1 4 3 1 1 4 4 3 5 8 6 5 5 5 4 5 8 7 6 3 8 15 14 14 12 9 9 9 10 10 11 12 11 8 8 8 9 8 9 8 8 9 8 7 6 6 5 5 4 4 4 4 3 4 5 5 5 4 4 5 5 7 6 6 7 6 6 5 5 4 5 6 5 3 4 3 3 3
Wind_Direction
130 175 189 184 190 209 175 182 177 170 138 136 127 110 138 112 69 143 140 157 152 127 169 147 139 139 153 158 160 120 151 191 180 175 176 180 180 182 185 187 191 196 208 202 192 185 181 170 154 143 143 144 141 147 153 156 161 162 163 158 163 166 159 159 163 170 164 157 143 135 164 166 164 159 158 169 152 141 160 153 147 147 146 136 125 129
99 180 234 197 199 189 196 183 112 69 66 134 139 145 151 138 156 171 162 160 187 194 154 127 130 155 160 159 152 80 141 187 188 182 180 184 186 186 186 188 188 201 201 180 180 183 173 162 148 141 146 148 151 160 159 165 166 162 161 161 161 161 165 166 170 173 177 182 179 155 170 149 158 159 163 168 178 159 162 155 151 157 150 142 131 132
174 206 230 212 207 201 68 107 128 131 99 54 129 149 120 110 110 87 139 158 121 55 125 147 147 166 164 153 125 110 122 159 82 307 202 182 189 190 191 190 186 189 191 181 185 173 175 168 158 153 160 168 162 161 165 164 158 157 161 157 160 167 167 169 170 168 180 188 190 172 152 144 128 120 145 131 149 157 146 156 156 158 156 149 145 144
196 271 231 195 159 143 75 88 104 94 80 112 80 119 174 174 152 180 130 48 21 337 157 158 142 153 138 95 102 171 228 133 60 317 286 214 190 191 194 189 185 185 180 185 179 179 174 168 165 159 165 164 149 151 158 165 163 160 158 156 160 166 167 168 176 176 181 174 154 91 97 103 100 146 134 113 121 133 133 159 154 162 158 165 160 160
205 187 82 136 142 154 142 156 129 144 206 262 163 149 133 179 226 127 144 124 103 46 94 118 119 167 169 154 162 196 224 185 179 352 304 256 236 208 193 196 190 183 179 180 180 177 169 166 173 177 171 158 161 166 170 169 169 169 162 160 162 164 168 170 176 169 151 139 102 79 80 88 75 76 100 111 123 161 174 158 177 190 172 173 173 176
286 263 157 89 86 114 128 138 200 140 214 305 227 192 173 180 115 103 127 132 130 106 196 160 147 207 188 181 178 165 172 201 104 10 303 247 221 173 185 200 199 200 185 176 178 177 174 177 177 166 161 172 173 173 179 174 169 162 159 155 158 160 161 170 170 158 155 159 144 129 134 142 133 131 143 175 178 175 180 188 172 154 177 179 180 183
206 262 133 161 132 117 140 177 242 157 188 161 270 189 166 163 138 134 146 142 167 191 192 221 170 231 193 185 181 177 185 188 158 187 219 247 224 191 198 192 187 187 191 191 179 174 174 177 168 172 177 182 184 184 165 166 166 161 160 158 158 162 163 166 160 161 158 153 154 161 170 170 176 169 195 163 160 164 173 157 159 164 170 183 183 192
155 29 103 96 113 120 140 221 254 156 141 225 248 150 145 138 146 159 155 162 111 64 93 203 93 148 310 212 181 176 185 202 196 202 209 218 233 208 205 193 186 188 185 181 182 181 178 174 174 180 187 185 191 166 160 165 165 162 165 162 159 160 162 165 157 163 165 160 163 166 171 171 176 182 181 171 175 161 157 156 168 158 178 180 192 190
165 229 152 127 115 144 200 204 212 171 163 203 222 143 154 163 166 155 149 128 132 123 147 197 177 49 285 190 145 158 193 212 214 204 205 209 211 207 207 200 188 188 187 180 178 182 180 179 184 183 185 192 166 162 172 177 170 161 162 162 156 158 160 161 160 161 169 165 164 167 168 175 186 175 159 149 156 154 160 155 150 168 173 178 193 195
296 197 204 171 152 204 221 220 176 186 209 297 86 81 73 64 57 50 56 100 101 81 199 192 188 131 278 144 171 173 201 217 214 206 203 203 202 199 193 214 194 186 184 188 183 181 183 184 185 187 182 171 182 175 164 154 147 155 157 161 161 163 163 161 162 162 164 166 160 162 173 174 165 149 119 141 157 160 163 175 173 168 172 178 181 196
243 316 163 124 186 206 191 206 180 168 133 136 89 87 67 53 56 42 34 17 68 320 249 187 195 129 218 205 193 177 207 211 194 195 201 202 191 193 199 197 193 182 179 185 188 187 186 186 182 166 176 185 169 158 160 159 159 158 165 166 169 172 163 163 164 161 166 166 166 170 175 175 167 163 152 147 158 160 165 178 181 178 185 171 182 180
310 295 158 237 180 163 145 150 313 157 155 113 97 112 95 31 22 54 360 11 82 266 262 176 184 117 149 275 216 230 356 162 189 192 188 191 183 191 187 186 202 187 181 179 179 184 181 167 170 173 177 173 169 158 166 165 160 164 169 171 172 170 168 167 165 165 164 165 172 175 176 178 175 166 165 170 171 177 178 178 178 184 169 184 171 178
296 229 224 260 207 159 148 107 357 176 193 93 113 103 98 48 49 6 32 263 201 210 329 149 139 84 259 218 113 244 266 263 214 196 186 182 185 179 178 167 180 191 168 174 178 174 172 173 171 177 179 162 165 178 178 173 171 166 168 174 171 179 174 171 167 170 168 166 173 177 182 185 170 173 172 173 174 175 175 172 167 170 186 175 174 187
275 275 235 240 346 187 136 147 170 128 179 131 135 128 97 106 68 102 210 287 328 285 347 145 168 248 272 274 212 251 239 248 216 205 177 182 179 177 165 166 158 158 165 175 175 177 178 178 180 180 175 179 185 184 181 175 172 170 171 175 178 180 177 169 170 171 169 175 171 176 185 181 169 174 175 177 174 175 176 172 178 181 182 182 195 179
186 254 267 145 239 187 167 159 172 160 157 168 156 150 165 152 156 165 181 184 203 195 353 97 146 240 115 179 315 306 48 350 296 184 162 172 168 136 136 138 116 121 91 167 177 181 183 184 181 179 181 184 186 185 180 179 176 167 171 175 182 173 175 170 175 170 174 174 169 171 188 183 171 171 176 184 180 172 168 176 177 188 178 184 195 192
200 207 256 212 219 151 170 186 143 134 143 199 168 64 118 208 149 154 188 151 155 125 109 115 231 294 209 306 291 77 90 58 33 119 120 151 143 140 145 146 147 154 146 149 178 185 187 185 181 179 182 185 185 185 184 180 173 180 182 181 184 179 174 173 170 176 176 176 165 165 177 189 177 172 171 168 178 177 178 175 182 185 187 193 185 192
20 297 267 317 132 165 197 143 191 141 157 221 128 169 208 170 118 103 55 20 108 60 57 38 277 234 317 327 312 129 91 76 114 125 144 162 159 149 156 152 156 162 134 125 167 184 185 183 185 184 182 180 177 180 190 186 186 187 181 178 182 181 173 174 174 174 177 172 165 171 175 181 177 170 171 175 183 183 183 179 184 179 189 179 182 184
139 261 289 126 282 256 189 158 164 182 138 97 161 216 104 75 93 120 144 333 52 127 206 330 271 275 82 282 222 107 83 67 55 137 151 161 165 160 158 159 156 157 129 105 120 148 183 188 185 186 189 183 180 183 188 193 190 187 185 183 181 178 180 183 175 173 175 174 174 169 172 178 180 177 181 178 180 180 171 187 182 167 167 189 186 183
142 312 294 237 206 264 10 108 62 18 243 156 189 169 133 198 233 333 101 80 103 313 213 292 343 283 176 241 232 143 114 99 74 74 150 146 174 174 156 159 156 137 131 129 121 131 152 185 192 188 187 184 184 183 184 180 179 183 192 193 189 188 189 181 176 172 172 175 177 175 174 171 176 178 178 183 177 166 175 186 184 190 196 172 171 178
30 163 293 298 151 331 16 113 193 212 16 12 89 129 73 110 144 129 203 164 114 148 122 275 43 255 208 185 214 145 130 119 109 99 155 179 174 177 166 166 166 154 149 151 131 121 150 165 193 192 184 180 178 176 173 168 170 191 196 192 196 183 153 157 172 170 175 182 178 175 167 176 176 180 179 180 173 176 185 191 186 194 183 195 177 180
172 116 229 282 297 73 181 89 180 160 143 110 129 172 38 25 216 102 34 87 155 156 157 137 318 259 261 232 238 141 132 127 138 148 135 154 187 180 176 166 170 163 162 161 143 133 111 108 128 169 183 184 174 171 165 169 182 186 176 189 183 179 177 181 180 169 174 169 186 178 183 178 176 180 179 178 181 185 192 189 193 194 202 165 192 178
88 102 197 306 40 176 237 242 191 170 161 161 153 188 160 135 113 130 203 358 75 114 169 140 228 287 274 300 228 124 126 126 138 133 90 103 151 162 162 159 161 172 174 153 136 109 66 58 70 94 124 145 159 171 173 181 171 165 179 183 177 174 186 185 183 183 175 174 178 190 193 188 178 175 177 178 182 192 192 192 194 197 176 191 197 180
154 157 94 285 194 206 239 308 282 176 66 166 146 178 163 130 113 113 140 230 64 37 90 131 104 298 279 308 123 127 128 124 119 108 98 78 67 52 85 149 143 136 151 143 129 105 84 39 30 58 117 154 171 178 176 169 176 181 178 169 175 181 193 188 185 174 162 167 176 190 187 184 186 178 183 185 187 196 193 192 196 185 188 201 198 193
106 60 80 271 312 302 307 261 79 75 130 89 30 62 127 161 175 161 169 168 132 151 82 1 97 228 258 238 71 114 113 106 90 100 96 83 74 63 54 69 91 122 129 127 122 121 129 133 113 82 75 84 89 134 162 171 174 167 165 168 167 184 183 180 177 170 167 165 171 169 172 188 184 184 192 201 199 200 196 187 190 185 192 200 191 192
101 334 118 69 22 342 343 351 7 328 60 86 134 317 119 97 73 109 99 50 99 203 172 135 207 179 167 112 107 107 108 98 96 86 89 87 81 75 66 64 97 142 145 138 140 139 123 108 98 98 98 100 105 106 125 142 149 149 148 152 159 148 132 134 147 168 175 172 170 170 179 188 181 186 199 214 212 212 196 196 193 190 198 192 199 196
84 60 65 134 147 153 171 175 210 218 184 265 103 78 304 126 132 115 101 104 104 216 129 134 179 148 124 140 132 123 116 103 102 99 90 87 90 97 79 47 43 33 354 141 132 140 136 127 113 95 92 95 96 99 97 89 94 101 99 111 127 133 130 127 133 148 158 168 172 174 182 190 193 199 200 199 198 201 198 202 203 204 207 201 204 203
113 90 89 150 152 179 200 217 253 132 48 97 38 103 146 75 73 85 109 109 164 183 178 229 159 141 151 159 146 145 133 127 124 114 104 101 97 77 64 49 45 48 36 28 83 115 113 114 109 104 86 61 77 92 91 106 110 109 111 105 98 109 119 121 117 108 106 94 100 124 157 212 256 278 250 225 210 190 185 193 204 211 217 211 213 208
68 51 21 139 99 196 230 229 270 218 134 130 119 116 38 112 134 122 140 203 155 107 277 271 172 148 170 158 152 147 139 128 131 119 116 116 119 106 91 75 58 50 43 39 41 68 83 95 99 92 86 79 70 75 86 92 102 115 115 109 102 95 100 109 112 108 107 115 128 131 130 126 304 20 23 4 342 294 221 196 197 208 219 214 223 225
119 64 324 344 54 41 13 317 312 100 63 95 87 90 152 298 129 125 159 163 148 150 188 189 173 160 160 155 149 149 155 150 139 127 117 116 117 111 98 81 70 63 50 54 46 43 81 85 86 90 92 90 84 75 73 80 84 68 68 76 77 83 67 49 30 60 93 86 52 30 36 184 213 195 54 15 34 0 331 304 227 209 222 226 229 229
83 32 309 237 57 33 15 12 352 99 93 57 43 44 38 77 61 106 96 77 106 151 152 145 154 132 148 145 154 156 140 134 122 115 119 116 108 96 92 85 85 76 57 50 59 60 57 73 79 80 77 68 69 65 65 66 66 65 61 62 78 88 90 94 94 82 94 100 116 131 105 23 340 334 126 65 44 1 318 300 323 350 25 331 280 280
99 322 334 323 63 13 11 7 11 12 99 75 42 45 44 52 68 56 107 101 84 64 110 131 133 131 131 145 135 129 133 122 117 119 112 109 106 105 97 94 91 90 85 72 55 61 68 67 71 75 74 70 65 64 65 64 60 66 66 65 67 71 81 89 85 76 70 65 61 62 70 107 166 85 49 82 109 118 101 346 316 320 315 314 328 328
51 265 18 33 62 343 354 5 329 329 82 80 45 22 19 25 74 5 101 226 119 138 130 122 132 151 154 127 125 135 136 133 126 123 120 113 104 99 99 94 93 88 78 76 69 59 62 66 65 67 70 70 72 67 64 68 64 56 52 52 47 46 55 65 69 74 66 64 66 66 66 62 70 76 76 94 138 176 174 159 157 183 292 303 338 23
52 114 54 29 72 312 305 9 330 329 52 34 352 336 332 320 190 129 22 24 153 139 136 165 196 149 138 137 133 142 137 129 128 129 121 114 108 107 104 103 97 93 87 85 79 65 56 62 68 72 70 66 63 65 57 59 71 72 71 66 61 56 51 54 55 63 64 58 61 56 54 58 69 81 77 66 78 98 124 125 107 94 85 63 37 24
114 103 134 191 102 262 325 332 358 53 57 245 257 261 198 171 161 96 33 78 81 6 157 49 107 119 129 136 138 146 143 141 131 104 111 126 121 109 101 101 98 97 97 93 88 81 74 67 66 66 73 74 73 69 63 58 59 49 57 71 62 59 55 55 50 45 44 43 44 46 40 42 61 64 63 53 46 52 74 89 96 93 92 95 85 67
47 58 123 186 92 327 336 8 38 15 242 269 313 302 196 116 103 96 75 47 358 103 102 104 114 126 131 129 132 125 110 103 101 111 99 101 118 118 123 122 115 110 103 99 95 90 86 83 74 65 62 64 67 70 67 53 64 63 50 49 64 60 61 53 56 51 46 45 42 40 41 40 47 62 60 66 58 45 51 71 86 76 69 59 55 53
60 95 184 52 107 79 40 20 106 233 254 285 319 44 71 87 100 89 55 26 13 71 126 119 120 120 123 123 115 117 116 105 86 64 84 83 94 128 129 124 124 119 107 103 98 93 93 85 81 74 62 50 54 58 63 70 68 67 63 60 59 57 56 55 55 47 40 40 31 43 33 38 43 47 58 66 75 64 38 20 41 60 62 72 66 61
127 98 85 64 353 124 167 155 237 309 339 337 357 4 10 50 49 71 136 4 343 318 130 126 124 123 120 120 118 114 113 103 92 49 19 84 78 63 112 121 123 111 103 91 86 83 79 83 84 84 81 66 60 58 52 57 65 67 58 53 49 50 49 49 46 41 30 17 14 27 28 36 45 46 43 32 38 45 37 20 10 11 16 57 57 62
100 147 229 110 330 94 110 15 0 22 311 285 252 289 272 254 239 183 105 4 329 54 148 133 136 131 126 127 126 127 120 109 105 103 355 70 90 105 80 95 99 102 98 93 83 83 81 81 79 66 75 75 62 52 55 56 63 62 55 46 39 42 41 43 36 32 34 23 4 15 28 25 32 43 45 40 32 23 28 19 17 18 13 36 43 50
31 71 89 111 148 60 62 110 186 129 255 224 289 297 301 320 333 113 63 349 275 150 181 146 140 143 143 142 143 142 134 129 156 174 199 146 126 126 120 111 103 95 90 92 104 98 88 83 83 79 69 69 63 44 54 62 63 61 53 44 39 38 37 29 23 21 15 8 10 20 24 32 37 38 35 34 25 22 26 22 23 19 38 48 50 53
34 9 33 59 73 66 146 151 218 197 174 320 283 294 297 324 331 64 43 283 201 180 157 158 144 144 143 142 145 149 144 128 174 190 178 150 140 141 134 132 122 114 100 95 75 83 87 86 82 70 67 65 59 51 57 59 61 59 54 43 41 37 23 5 352 345 353 12 22 31 31 28 29 27 27 22 21 24 35 24 33 35 46 55 61 59
354 349 48 143 136 92 107 301 10 318 266 248 255 286 317 303 64 82 176 248 190 156 163 158 155 148 147 150 161 158 209 178 161 141 142 137 123 110 96 103 120 123 124 114 103 94 81 70 74 73 65 65 64 61 60 65 64 53 48 46 45 35 6 338 334 350 6 16 24 25 24 25 28 20 19 22 20 19 43 39 46 43 44 47 43 47
354 90 346 69 43 61 163 119 199 247 239 285 290 277 277 19 69 207 235 218 156 153 157 158 156 162 159 163 162 129 134 117 123 131 137 144 141 137 131 126 112 95 96 106 111 103 93 85 81 74 61 53 59 60 63 68 66 55 43 40 28 2 338 344 353 358 12 19 16 18 19 16 14 24 19 17 25 33 46 40 49 51 51 48 49 54
227 97 294 49 203 81 48 69 42 113 283 63 314 319 49 86 228 211 179 341 201 150 150 162 164 166 155 123 106 129 127 130 140 147 146 144 143 144 142 140 136 132 127 116 103 102 104 95 84 77 78 62 59 62 70 76 70 55 42 34 2 333 344 357 7 13 22 23 17 12 11 11 11 7 9 15 21 30 45 48 52 50 55 59 63 64
181 79 271 269 192 138 77 90 159 212 257 291 356 143 292 211 239 177 134 123 32 145 149 143 156 159 153 139 137 134 137 133 132 138 136 139 136 133 132 127 124 121 116 106 110 114 103 101 97 91 78 74 72 72 75 84 84 73 61 27 334 342 354 6 12 21 28 25 15 7 4 1 1 7 15 17 17 24 23 23 49 61 55 64 66 63
243 126 179 126 235 99 174 215 256 257 247 274 224 248 255 296 213 186 152 149 147 165 136 140 150 138 139 147 141 142 146 155 153 156 151 154 148 146 145 147 143 139 133 127 124 115 108 113 112 101 84 73 75 71 70 76 83 71 54 1 4 9 3 6 17 24 21 15 9 7 353 349 357 3 19 17 19 24 12 6 4 39 41 56 53 54
286 165 163 86 212 267 233 218 272 311 335 335 317 302 334 346 6 89 122 129 202 149 167 160 156 139 139 149 136 152 151 153 146 152 146 144 143 143 135 128 122 126 123 117 116 115 114 111 104 101 94 72 70 74 76 74 81 81 65 4 18 10 355 17 31 33 20 8 9 3 355 352 347 2 6 7 13 17 12 358 0 358 30 58 53 56
276 115 69 85 328 76 135 329 14 333 328 359 346 341 21 28 4 360 31 47 113 104 79 75 88 73 66 46 143 154 159 155 151 145 141 142 143 145 144 139 142 143 140 134 138 128 120 117 112 111 104 94 73 82 80 81 74 90 72 46 11 13 4 28 36 30 23 15 7 7 11 7 2 3 354 356 352 357 2 359 3 351 15 56 73 52
358 149 67 50 59 89 212 283 285 274 289 357 18 19 356 343 350 16 16 86 101 83 109 125 112 122 164 174 187 161 153 156 150 149 150 149 145 146 145 145 145 141 140 140 142 132 126 124 126 122 116 111 107 94 91 82 82 75 60 43 24 0 20 40 39 34 22 19 16 21 19 16 11 6 349 349 353 347 343 350 359 18 356 343 40 63
249 356 202 166 104 299 314 287 301 312 15 13 5 15 333 315 344 9 15 42 89 104 106 87 128 184 173 138 107 97 77 19 354 139 143 141 144 149 152 154 156 153 146 144 148 141 140 141 134 134 127 126 126 112 97 91 83 66 64 50 30 26 37 37 33 27 24 17 24 25 27 22 13 359 355 346 347 345 305 291 329 321 317 296 193 357
54 53 190 64 44 355 175 220 67 112 276 329 358 343 339 339 55 38 33 42 35 59 96 116 79 87 133 145 143 148 149 155 163 180 168 156 153 152 155 157 158 149 151 147 143 146 143 142 140 136 127 128 131 116 108 99 77 56 53 42 38 40 46 37 36 28 20 14 15 25 29 15 10 9 9 5 359 348 357 4 352 318 337 344 355 17
76 198 133 115 153 231 262 247 199 132 135 226 265 325 359 353 69 54 47 49 46 53 52 81 110 111 132 152 161 156 160 161 168 161 154 159 166 170 167 163 160 158 152 153 145 150 143 146 140 127 122 134 135 124 120 109 95 69 40 37 33 51 54 43 45 31 16 15 16 32 31 16 10 8 5 10 5 1 357 341 347 315 280 310 342 340